This demonstration page uses our WeatherBlox Daily Observations layout. Learn more.

Left ArrowRight Arrow

Hourly Observations for May 17, 2022

Temp ( °F °C ) Dew Point ( °F °C ) Humidity (%) Winds ( mph kmh ) Pressure ( in mb ) Visibility ( mi km ) Precip ( " mm )
12:53 am 00:53 Clear 64 17.8 52 11.1 65 65 ESE 9 15 29.93 1013 10 16 0.00 0.00
1:53 am 01:53 Mostly Cloudy 66 18.9 52 11.1 61 61 SE 14 22 29.92 1013 10 16 0.00 0.00
2:31 am 02:31 Cloudy with Thunderstorms 65 18.3 52 11.1 63 63 SE 9 15 29.92 1013 10 16 0.00 0.00
2:53 am 02:53 Cloudy with Thunderstorms 65 18.3 52 11.1 63 63 SE 10 17 29.91 1013 10 16 0.00 0.00
3:53 am 03:53 Cloudy with Thunderstorms 62 16.7 55 12.8 78 78 Calm 29.93 1014 10 16 0.07 1.78
4:53 am 04:53 Cloudy with Thunderstorms 62 16.7 58 14.4 86 86 E 12 19 29.90 1013 5 8 0.06 1.52
5:53 am 05:53 Cloudy with Thunderstorms 62 16.7 58 14.4 86 86 S 8 13 29.92 1013 9 14 0.09 2.29
6:53 am 06:53 Windy with Storms Likely 64 17.8 61 16.1 90 90 SSE 28 44 29.84 1011 7 11 0.09 2.29
7:25 am 07:25 Cloudy 66 18.9 61 16.1 84 84 SSE 17 28 29.84 1010 10 16 0.00 0.00
7:53 am 07:53 Cloudy 67 19.4 61 16.1 81 81 SSE 16 26 29.83 1010 10 16 0.00 0.00
8:53 am 08:53 Mostly Cloudy 71 21.7 61 16.1 71 71 SSE 15 24 29.84 1011 10 16 0.00 0.00
9:53 am 09:53 Mostly Cloudy 73 22.8 62 16.7 69 69 SSE 20 31 29.86 1011 10 16 0.00 0.00
10:53 am 10:53 Mostly Cloudy 75 23.9 67 19.4 76 76 SSE 25 41 29.86 1011 10 16 0.00 0.00
11:53 am 11:53 Mostly Cloudy 75 23.9 68 20 79 79 SSE 16 26 29.83 1010 10 16 0.00 0.00
12:53 pm 12:53 Mostly Cloudy 79 26.1 68 20 69 69 SSW 22 35 29.82 1010 10 16 0.00 0.00
1:53 pm 13:53 Mostly Cloudy 83 28.3 70 21.1 65 65 S 16 26 29.78 1008 10 16 0.00 0.00
2:53 pm 14:53 Mostly Cloudy 85 29.4 68 20 57 57 S 20 31 29.75 1008 10 16 0.00 0.00
3:53 pm 15:53 Partly Cloudy 86 30 70 21.1 59 59 S 21 33 29.74 1007 10 16 0.00 0.00
4:53 pm 16:53 Partly Cloudy 85 29.4 69 20.6 59 59 S 22 35 29.72 1007 10 16 0.00 0.00
5:53 pm 17:53 Mostly Cloudy 85 29.4 69 20.6 59 59 S 20 31 29.71 1006 10 16 0.00 0.00
6:53 pm 18:53 Mostly Sunny 83 28.3 70 21.1 65 65 SSE 15 24 29.68 1005 10 16 0.00 0.00
7:53 pm 19:53 Mostly Sunny 81 27.2 68 20 65 65 SSE 20 31 29.67 1005 10 16 0.00 0.00
8:53 pm 20:53 Partly Cloudy 79 26.1 69 20.6 72 72 SSE 16 26 29.66 1004 10 16 0.00 0.00
9:53 pm 21:53 Partly Cloudy 77 25 69 20.6 77 77 SSE 15 24 29.69 1005 10 16 0.00 0.00
10:53 pm 22:53 Partly Cloudy 77 25 66 18.9 69 69 SSE 16 26 29.66 1005 10 16 0.00 0.00
11:53 pm 23:53 Cloudy with Thunderstorms 75 23.9 63 17.2 66 66 N 38 61 29.85 1011 10 16 0.00 0.00
11:58 pm 23:58 Cloudy with Thunderstorms 73 22.8 61 16.1 66 66 N 31 50 29.86 1011 9 14 0.00 0.00

Powered by AerisWeather